LFGJLFSD

Guest
Details From LFGJ - Dole Tavaux
To LFSD - Dijon Longvic AB
Flight Number -
Tags generated
Created
Modified
Stats Distance 20 nm / 36 km
Max Altitude 0 ft / 0 m
Waypoints 3
Social Downloads 1
Likes 0
Share

Download

Looking for another format? Having issues loading an existing format? Contact us
Advertisement - Login to hide

Notes

Basic altitude profile: - Ascent Rate: 2500ft/min - Ascent Speed: 250kts - Cruise Altitude: 35000ft - Cruise Speed: 420kts - Descent Rate: 1500ft/min - Descent Speed: 250kts Options: - Use NATs: yes - Use PACOTS: yes - Use low airways: yes - Use high airways: yes

Route

LFGJ DJL LFSD

ID Type Via Altitude (ft/m) Position (lat/lon) Dist (leg/tot) Name
O LFGJ APT - 0 / 0 47.03890 / 5.42726 - / 0 nm Dole Tavaux
DJL VOR - 0 / 0 47.27080 / 5.09733 19 / 19 nm DIJON LONGVIC
O LFSD APT - 0 / 0 47.26900 / 5.09012 0 / 19 nm Dijon Longvic AB

Altitude Profile

Advertisement - Login to hide

LFGJ

Details ICAO LFGJ (DLE)
Name Dole Tavaux
Region France
Timezone Europe/Paris (UTC+1.0)
Stats Elevation 645 ft / 197 m (AMSL)
Location 47.038900° 5.427260°
Runways 1
Magnetic Variation 2.314° E

METAR

LFGJ 040700Z AUTO 27003KT 7000 SCT019 SCT024 OVC037 05/05 Q1012 TEMPO 4000 -RA BR BKN011

Decode

TAF

Not found

Departure Runways

ID Width Length Bearing (true/mag) Surface Threshold Overrun Markings Lighting
05 148 ft / 45 m 7,306 ft / 2,227 m 54.25° / 51.94° ASPHALT 0 ft / 0 m 0 ft / 0 m PREC-APP EDGE THRESHOLD REIL-OMNI
23 148 ft / 45 m 7,306 ft / 2,227 m 234.27° / 231.95° ASPHALT 0 ft / 0 m 1,214 ft / 370 m PREC-APP EDGE THRESHOLD REIL-OMNI

LFSD

Details ICAO LFSD (DIJ)
Name Dijon Longvic
Region France
Timezone Europe/Paris (UTC+1.0)
Stats Elevation 728 ft / 222 m (AMSL)
Location 47.269000° 5.090110°
Runways 2
Magnetic Variation 2.224° E

METAR

LFSD 040700Z AUTO 31004KT 280V340 9999 OVC020 06/04 Q1012

Decode

TAF

Not found

Destination Runways

ID Width Length Bearing (true/mag) Surface Threshold Overrun Markings Lighting
01 121 ft / 37 m 6,046 ft / 1,843 m 15.02° / 12.79° ASPHALT 0 ft / 0 m 0 ft / 0 m UK-APP EDGE THRESHOLD
17 148 ft / 45 m 7,881 ft / 2,402 m 175.00° / 172.78° ASPHALT 0 ft / 0 m 1,394 ft / 425 m PREC-APP EDGE THRESHOLD
19 121 ft / 37 m 6,046 ft / 1,843 m 195.02° / 192.80° ASPHALT 0 ft / 0 m 443 ft / 135 m UK-APP EDGE THRESHOLD
35 148 ft / 45 m 7,881 ft / 2,402 m 355.00° / 352.78° ASPHALT 0 ft / 0 m 1,099 ft / 335 m PREC-APP EDGE THRESHOLD ALSF-I REIL-OMNI

Approach Navaids

Runway Type Ident Frequency Range Bearing (true/mag) Slope Elevation
35 GS DJ 109.50 MHz 10 nm / 19 km 355.00° / 352.78 ° 3.00° 728 ft / 222 m (AMSL)
35 LOC-ILS DJ 109.50 MHz 18 nm / 33 km 355.00° / 352.78 ° - 728 ft / 222 m (AMSL)

Popular Alternatives